Location: Unspecified
(49.2170°N, 0.0000°E)
Time: 08:50:55
(UTC+00:00)

Transit 4A - Pass Details

Date: 16 June 2019
Orbit: 864 x 981 km, 66.8° (Epoch: 25 August)

Event Time Altitude Azimuth Distance (km) Brightness Sun altitude
Rises 09:50:03 0° 212° (SSW) 3,603 11.0 53.6°
Reaches altitude 10° 09:52:33 10° 212° (SSW) 2,676 10.5 53.9°
Maximum altitude 09:58:51 86° 124° (SE) 979 9.3 54.8°
Drops below altitude 10° 10:05:18 10° 37° (NE) 2,741 10.5 55.6°
Sets 10:07:53 0° 37° (NE) 3,695 11.0 56.0°
